Home > Weather > Cadiz > Past weeks

Flag for Spain Past Weather in Cadiz, Cádiz, Spain — Yesterday and Last 2 Weeks

Now
72 °F

Passing clouds.


Feels Like: 76 °F
Forecast: 65 / 81 °F
Wind: 16 mph from West

Location: Rota Airport

Current Time: May 30, 2016 at 4:31:46 PM

Latest Report: May 30, 2016 at 4:00 PM


Visibility: N/A

Pressure: 30.07 "Hg

Humidity: 57%

Dew Point: 55 °F

Location of CadizLocation

Past Weather in Cadiz — Graph

°F

Cadiz Temperature Yesterday

Maximum temperature yesterday: 70 °F (at 3:00 PM)
Minimum temperature yesterday: 59 °F (at 8:00 AM)
Average temperature yesterday: 66 °F

High & Low Weather Summary for the Past Weeks

 TemperatureHumidityPressure
High79 °F (May 17, 1:00 PM)94% (May 16, 7:00 AM)30.18 "Hg (May 16, 7:00 AM)
Low57 °F (May 16, 7:00 AM)34% (May 17, 9:00 PM)29.86 "Hg (May 25, 7:00 PM)
Average68 °F71%30.03 "Hg
* Reported May 15 3:00 PM — May 30 3:00 PM, Cadiz, Weather by CustomWeather, © 2016

Note: Actual official high and low records may vary slightly from our data, if they occured in-between our weather recording intervals... More about our weather records

Advertising

Cadiz Weather History for the Previous 24 Hours

Scroll right to see more
 ConditionsComfort  
Time TempWeatherWind HumidityBarometerVisibility
3:00 PM
Mon, May 30
72 °FPassing clouds.14 mph61%30.07 "HgN/A
2:00 PM72 °FPassing clouds.13 mph61%30.09 "HgN/A
1:00 PM72 °FPassing clouds.8 mph65%30.09 "HgN/A
12:00 PM72 °FPassing clouds.8 mph50%30.09 "HgN/A
11:00 AM70 °FPassing clouds.7 mph57%30.09 "HgN/A
10:00 AM66 °FPassing clouds.10 mph64%30.09 "HgN/A
9:00 AM63 °FPassing clouds.9 mph68%30.09 "HgN/A
8:00 AM59 °FClear.7 mph72%30.09 "Hg10 mi
7:00 AM57 °FPassing clouds.9 mph77%30.09 "HgN/A
6:00 AM59 °FClear.8 mph72%30.09 "Hg10 mi
5:00 AM59 °FClear.7 mph72%30.09 "Hg10 mi
4:00 AM61 °FPassing clouds.5 mph72%30.09 "HgN/A
3:00 AM63 °FPassing clouds.9 mph68%30.09 "HgN/A
2:00 AM64 °FClear.9 mph64%30.12 "Hg10 mi
1:00 AM64 °FPassing clouds.10 mph73%30.12 "HgN/A
12:00 AM64 °FClear.8 mph68%30.15 "Hg10 mi
11:00 PM
Sun, May 29
64 °FClear.12 mph64%30.15 "Hg10 mi
10:00 PM64 °FPassing clouds.10 mph68%30.12 "HgN/A
9:00 PM66 °FPassing clouds.9 mph64%30.12 "HgN/A
8:00 PM68 °FPassing clouds.13 mph64%30.12 "HgN/A
7:00 PM68 °FPassing clouds.15 mph60%30.12 "HgN/A
6:00 PM70 °FPassing clouds.14 mph60%30.15 "HgN/A
5:00 PM68 °FPassing clouds.14 mph60%30.15 "HgN/A
4:00 PM68 °FPassing clouds.16 mph60%30.15 "HgN/A
Weather by CustomWeather, © 2016

See weather overviewHow to use our weather pages